Location: Shell Point
(30.0571°N, 84.2896°W)
Time: 16:57:44
(UTC-04:00)

Meteor 2-19 Rocket - Visible Passes

Search period start: 24 April 2017 00:00
Search period end: 04 May 2017 00:00
Orbit: 935 x 959 km, 82.5° (Epoch: 23 April)

Date Brightness Start Highest point End Pass type
(mag) Time Alt. Az. Time Alt. Az. Time Alt. Az.
24 Apr 6.8 02:21:50 10° N 02:23:10 17° N 02:23:10 17° N visible
25 Apr 6.7 02:38:42 10° N 02:40:00 17° N 02:40:00 17° N visible
26 Apr 6.8 02:55:51 10° NNW 02:56:49 15° NNW 02:56:49 15° NNW visible
27 Apr 6.9 01:28:42 10° NNE 01:29:37 14° NNE 01:29:37 14° NNE visible
27 Apr 6.9 03:13:20 10° NNW 03:13:40 11° NNW 03:13:40 11° NNW visible
28 Apr 6.8 01:45:08 10° N 01:46:29 17° NNE 01:46:29 17° NNE visible
29 Apr 6.7 02:01:54 10° N 02:03:21 18° N 02:03:21 18° N visible
30 Apr 6.7 02:18:57 10° NNW 02:20:14 17° NNW 02:20:14 17° NNW visible
01 May 6.9 00:52:12 10° NNE 00:53:03 13° NNE 00:53:03 13° NNE visible
01 May 6.8 02:36:18 10° NNW 02:37:07 14° NNW 02:37:07 14° NNW visible
02 May 6.7 01:08:28 10° NNE 01:09:57 17° NNE 01:09:57 17° NNE visible
03 May 6.6 01:25:08 10° N 01:26:52 20° N 01:26:52 20° N visible
